DW2516 Weather Reports


time (UTC)temp
C
wind
direction
speed
KPH
gust
KPH
rain 1hr
cm
rain 24hr
cm
rain mn
cm
humidity
%
barometer
mb
20260507021524 15 0.0 0.0 0.00 0.00 0.00 74 1007.3
20260507020021 15 0.0 0.0 0.00 0.00 0.00 74 1007.5
20260507014519 15 0.0 0.0 0.00 0.00 0.00 74 1007.1
20260507013011 15 0.0 0.0 0.00 0.00 0.00 73 1007.0
20260507011516 15 0.0 0.0 0.00 0.00 0.00 75 1007.1
20260507010021 15 0.0 0.0 0.00 0.00 0.00 76 1006.9
20260507004507 15 0.0 0.0 0.00 0.00 0.00 76 1006.8
20260507003005 15 0.0 0.0 0.00 0.00 0.00 76 1006.8
20260507001504 15 0.0 0.0 0.00 0.00 0.00 75 1006.8
20260507000003 15 0.0 0.0 0.00 0.00 0.00 75 1006.6
20260506234626 15 0.0 0.0 0.00 0.00 0.00 74 1006.6
20260506233057 15 0.0 0.0 0.00 0.00 0.00 74 1006.4
20260506231546 16 0.0 0.0 0.00 0.00 0.00 73 1006.0
20260506230044 16 0.0 0.0 0.00 0.00 0.00 73 1005.9
20260506224545 16 0.0 0.0 0.00 0.00 0.00 72 1005.7
20260506223029 16 0.0 0.0 0.00 0.00 0.00 72 1005.5
20260506221527 16 0.0 0.0 0.00 0.00 0.00 72 1005.5
20260506220030 16 0.0 0.0 0.00 0.00 0.00 72 1005.2
20260506214523 16 0.0 0.0 0.00 0.00 0.00 72 1005.2
20260506213028 16 0.0 0.0 0.00 0.00 0.00 71 1005.1
20260506211524 17 0.0 0.0 0.00 0.00 0.00 71 1005.0
20260506210008 17 0.0 0.0 0.00 0.00 0.00 70 1005.1
20260506204509 17 0.0 0.0 0.00 0.00 0.00 69 1004.9
20260506203019 17 0.0 0.0 0.00 0.00 0.00 68 1004.8
20260506201509 17 0.0 0.0 0.00 0.00 0.00 67 1004.8
20260506200005 17 0.0 0.0 0.00 0.00 0.00 67 1004.8
20260506194507 18 0.0 0.0 0.00 0.00 0.00 66 1004.6
20260506193003 18 0.0 0.0 0.00 0.00 0.00 65 1004.5
20260506191506 18 0.0 0.0 0.00 0.00 0.00 64 1004.4
20260506190006 18 0.0 0.0 0.00 0.00 0.00 63 1004.3
20260506184605 18 0.0 0.0 0.00 0.00 0.00 63 1004.0
20260506183104 18 0.0 0.0 0.00 0.00 0.00 62 1003.7
20260506181600 19 0.0 0.0 0.00 0.00 0.00 61 1003.5
20260506180056 19 0.0 0.0 0.00 0.00 0.00 60 1003.8
20260506174601 20 0.0 0.0 0.00 0.00 0.00 59 1003.7
20260506173108 20 0.0 0.0 0.00 0.00 0.00 58 1003.7
20260506171559 20 0.0 0.0 0.00 0.00 0.00 57 1003.5
20260506170052 20 0.0 0.0 0.00 0.00 0.00 56 1003.4
20260506164556 21 0.0 0.0 0.00 0.00 0.00 54 1003.7
20260506163054 21 0.0 0.0 0.00 0.00 0.00 52 1003.7
20260506161602 22 0.0 0.0 0.00 0.00 0.00 51 1003.6
20260506160049 22 0.0 0.0 0.00 0.00 0.00 50 1003.8
20260506154547 22 0.0 0.0 0.00 0.00 0.00 51 1003.8
20260506153044 22 0.0 0.0 0.00 0.00 0.00 50 1004.0
20260506151558 22 0.0 0.0 0.00 0.00 0.00 50 1004.0
20260506150038 23 0.0 0.0 0.00 0.00 0.00 49 1003.9
20260506144537 23 0.0 0.0 0.00 0.00 0.00 49 1004.1
20260506143045 23 0.0 0.0 0.00 0.00 0.00 50 1004.1
20260506141535 23 0.0 0.0 0.00 0.00 0.00 49 1004.4
20260506140038 23 0.0 0.0 0.00 0.00 0.00 49 1004.4
20260506134534 23 0.0 0.0 0.00 0.00 0.00 48 1004.5
20260506133034 23 0.0 0.0 0.00 0.00 0.00 47 1004.6
20260506131531 24 0.0 0.0 0.00 0.00 0.00 46 1004.7
20260506130030 23 0.0 0.0 0.00 0.00 0.00 46 1004.8
20260506124529 23 0.0 0.0 0.00 0.00 0.00 49 1005.0
20260506123029 23 0.0 0.0 0.00 0.00 0.00 49 1005.3
20260506121527 23 0.0 0.0 0.00 0.00 0.00 48 1005.4
20260506120022 23 0.0 0.0 0.00 0.00 0.00 52 1005.5
20260506114526 23 0.0 0.0 0.00 0.00 0.00 53 1005.5
20260506113019 22 0.0 0.0 0.00 0.00 0.00 54 1005.7
20260506111517 22 0.0 0.0 0.00 0.00 0.00 55 1005.7
20260506110015 23 0.0 0.0 0.00 0.00 0.00 55 1006.1
20260506104513 22 0.0 0.0 0.00 0.00 0.00 57 1006.3
20260506103015 22 0.0 0.0 0.00 0.00 0.00 58 1006.5
20260506101513 22 0.0 0.0 0.00 0.00 0.00 59 1006.7
20260506100007 22 0.0 0.0 0.00 0.00 0.00 57 1006.8
20260506094513 22 0.0 0.0 0.00 0.00 0.00 57 1006.9
20260506093004 22 0.0 0.0 0.00 0.00 0.00 58 1007.1
20260506091502 22 0.0 0.0 0.00 0.00 0.00 59 1006.9
20260506090101 21 0.0 0.0 0.00 0.00 0.00 61 1006.9
20260506084555 21 0.0 0.0 0.00 0.00 0.00 60 1007.0
20260506083050 21 0.0 0.0 0.00 0.00 0.00 61 1007.0
20260506081548 21 0.0 0.0 0.00 0.00 0.00 62 1006.9
20260506073045 20 0.0 0.0 0.00 0.00 0.00 65 1006.9
20260506071548 19 0.0 0.0 0.00 0.00 0.00 65 1007.0
20260506061520 16 0.0 0.0 0.00 0.00 0.00 76 1007.2
20260506044542 13 0.0 0.0 0.00 0.00 0.00 81 1006.7
20260506043040 12 0.0 0.0 0.00 0.00 0.00 82 1006.6
20260506041551 12 0.0 0.0 0.00 0.00 0.00 82 1006.5
20260506040038 12 0.0 0.0 0.00 0.00 0.00 82 1006.6
20260506034533 12 0.0 0.0 0.00 0.00 0.00 81 1006.4
20260506033033 12 0.0 0.0 0.00 0.00 0.00 81 1006.5
20260506031530 12 0.0 0.0 0.00 0.00 0.00 81 1006.3
20260506030028 12 0.0 0.0 0.00 0.00 0.00 81 1006.3
20260506024522 12 0.0 0.0 0.00 0.00 0.00 80 1006.2
20260506023013 12 0.0 0.0 0.00 0.00 0.00 79 1006.1